Theta_e
312 312 312 312 311 310 310 310 310 310 310 310 311 311 312 312 312 312 312 312 313 313 312 312 312 311 302 293 292 302 313 309 302 301 303 306 300 298 292 296 302 306 307 310 313 313 311
311 311 310 310 310 310 309 309 309 309 309 310 310 310 311 311 311 311 312 312 313 312 312 312 312 311 298 288 302 304 303 305 301 296 297 304 299 300 297 294 298 297 300 305 307 307 307
310 310 310 309 309 309 309 309 309 309 309 311 311 310 310 310 311 312 312 313 313 313 313 313 312 308 298 293 305 305 304 301 300 301 295 298 306 301 296 293 296 296 293 295 297 299 302
310 310 310 310 310 308 308 308 309 309 309 310 310 310 310 310 311 311 312 313 313 315 315 314 312 303 292 305 305 304 303 301 303 302 300 300 299 294 295 297 296 292 291 289 297 297 299
310 310 310 309 309 309 309 309 309 309 310 309 310 310 310 310 311 311 312 312 313 315 315 314 303 299 292 307 303 306 304 300 300 301 300 303 296 292 293 290 287 289 288 288 292 299 299
310 309 309 309 309 309 309 309 309 309 309 309 309 310 310 310 311 311 311 312 312 312 312 311 307 294 296 295 301 302 304 302 299 297 295 293 290 287 286 287 283 285 286 290 290 295 297
309 309 309 309 309 308 309 309 309 309 309 309 309 309 310 310 310 311 306 298 294 292 294 291 293 294 295 300 303 300 302 299 297 294 286 289 284 282 287 290 291 289 287 287 292 296 295
308 308 308 309 309 309 309 309 309 308 309 309 309 309 309 310 310 310 299 295 296 296 289 297 295 295 299 299 294 298 301 292 291 286 287 284 281 288 290 290 289 288 285 285 290 294 292
307 308 308 308 308 308 308 308 308 308 308 309 309 308 308 309 309 301 296 298 300 296 286 291 295 295 297 297 294 294 297 293 289 285 285 282 285 290 289 287 286 286 285 286 287 292 293
307 307 307 307 307 307 308 308 308 308 308 308 309 308 308 308 300 297 296 301 300 297 280 286 292 294 296 296 291 299 299 294 289 285 286 283 288 287 285 285 287 282 289 290 290 287 282
307 307 307 307 307 307 307 307 307 308 307 308 308 308 307 307 296 296 299 300 298 293 269 289 291 299 297 290 293 295 303 297 288 288 287 285 284 284 284 285 288 285 290 288 289 285 283
307 307 307 307 307 307 308 307 307 307 308 308 308 308 307 301 297 299 301 298 295 280 270 286 291 290 290 292 292 294 295 300 298 292 292 290 292 288 286 289 289 291 288 286 285 283 277
307 307 307 307 307 307 308 308 307 307 308 308 308 308 304 303 294 298 298 291 279 273 287 285 286 289 288 287 288 290 289 287 286 283 284 289 287 291 290 284 287 285 280 275 274 274 276
308 307 307 307 307 308 308 307 307 307 307 307 307 304 303 303 298 299 292 283 271 283 284 290 289 288 284 286 286 288 286 284 291 289 285 283 279 286 292 286 282 282 281 275 274 274 276
309 309 309 309 308 309 308 307 307 307 307 306 304 296 296 299 302 296 288 276 279 284 289 287 287 283 282 285 286 285 284 285 290 291 283 283 282 292 293 292 289 284 279 285 278 279 276
308 308 308 308 308 308 309 308 307 307 307 306 293 293 296 301 299 293 285 283 283 290 291 289 282 285 280 282 282 282 283 289 289 292 292 287 280 289 292 294 292 286 287 278 276 273 273
308 308 308 308 308 308 308 309 308 307 306 305 292 292 298 300 298 289 278 281 287 293 293 289 286 284 283 283 283 282 284 289 292 291 292 288 282 285 288 285 283 284 281 282 279 278 275
308 308 308 308 307 307 307 307 308 307 305 300 289 287 299 297 285 276 278 286 292 291 293 291 290 287 285 285 283 283 284 288 293 292 287 289 284 280 283 288 290 286 284 284 279 278 279
308 308 308 308 308 308 307 307 306 307 305 300 291 290 298 294 277 276 284 287 290 290 290 290 289 289 288 285 282 285 287 292 291 291 287 288 282 277 279 284 288 284 286 285 283 282 278
308 308 308 309 309 308 308 308 307 307 305 300 293 284 288 287 285 282 283 285 286 292 291 291 289 290 288 285 287 285 286 291 292 292 296 292 285 281 275 279 284 282 285 287 286 279 280
307 309 309 309 309 309 308 308 308 307 305 294 288 284 288 280 281 282 287 287 285 286 292 291 288 289 288 285 285 285 288 289 292 294 290 287 282 283 284 286 286 285 285 286 285 285 282
308 309 309 310 309 308 308 308 308 307 304 293 282 284 287 283 284 283 284 285 286 287 288 287 287 289 289 286 286 284 287 288 287 290 288 291 283 283 282 286 286 284 286 286 286 287 287
307 308 309 309 309 308 308 307 308 308 301 293 292 288 288 285 282 280 280 285 286 289 290 292 290 289 287 289 293 292 292 291 290 289 288 287 285 279 277 284 284 279 284 286 287 289 288
308 309 309 309 309 308 308 307 307 308 304 298 295 293 287 281 282 282 285 286 285 288 287 291 291 289 292 295 293 293 289 289 290 289 291 287 285 283 277 280 272 284 294 294 289 290 291
308 309 308 308 308 307 307 307 307 308 307 299 298 294 290 283 285 286 287 287 287 288 289 291 292 293 293 290 286 283 283 286 289 290 289 289 286 280 276 277 283 287 291 290 289 288 295
308 307 307 307 306 306 306 305 305 306 307 303 299 299 293 286 284 288 285 284 282 285 289 291 293 294 290 284 281 277 277 284 283 286 293 289 289 283 281 276 274 287 287 294 294 286 299
307 306 305 304 305 305 305 305 306 306 306 304 300 299 295 287 290 287 287 286 288 288 285 290 292 288 287 282 280 278 278 287 281 282 284 285 284 280 281 279 283 291 292 293 286 286 299
305 304 303 303 304 304 304 305 305 307 306 304 301 300 295 290 291 293 293 288 287 287 286 290 289 286 284 281 281 278 281 284 284 287 285 284 282 282 283 280 279 290 290 289 294 295 301
303 303 302 302 303 303 303 304 304 306 307 306 298 301 301 293 292 297 297 298 296 294 290 292 292 291 285 286 281 282 284 284 284 281 291 283 286 283 284 284 291 290 290 293 295 297 302
Wind_Speed
15 16 16 18 18 19 19 19 19 20 20 20 21 22 22 23 23 23 22 22 20 20 18 15 12 9 3 4 12 7 16 12 7 7 4 4 9 4 7 6 5 15 10 8 15 10 8
15 14 16 16 17 17 18 18 19 19 20 20 21 21 22 23 23 23 23 21 19 19 16 11 7 5 3 3 5 3 6 13 4 3 5 4 7 8 5 6 17 2 8 11 7 7 4
15 16 16 16 16 17 17 18 18 18 20 19 20 22 23 23 24 24 23 24 18 18 13 7 5 6 4 14 4 6 6 3 3 3 3 6 8 5 1 3 5 4 6 4 7 5 10
15 16 16 17 17 17 18 18 18 18 19 19 20 21 22 23 23 24 24 26 25 18 6 3 6 2 9 6 4 7 4 4 6 5 7 10 6 3 6 5 5 4 5 13 13 8 6
15 16 16 17 17 17 18 18 19 19 19 20 20 20 22 23 23 23 24 24 22 8 6 8 4 3 12 5 2 7 8 4 6 3 5 11 4 7 3 4 4 5 16 9 6 9 11
16 17 17 17 18 18 19 19 20 20 21 21 22 21 22 23 22 21 24 19 11 6 6 5 2 1 6 8 6 4 6 6 3 4 3 4 4 4 3 7 17 10 6 1 5 5 14
16 17 17 17 18 18 18 19 20 20 21 21 22 22 22 23 23 21 10 6 8 7 4 4 9 4 15 8 9 5 5 2 4 6 3 4 4 14 11 10 9 6 3 2 1 2 3
16 17 17 17 18 18 19 19 20 20 21 21 22 23 23 23 22 17 3 5 4 5 11 12 11 9 12 6 6 7 1 1 1 4 1 5 9 7 4 6 9 9 2 4 5 9 4
17 17 17 18 18 19 19 20 21 21 21 21 22 23 23 23 24 3 1 2 4 4 2 9 6 4 9 4 5 7 3 2 4 3 4 7 8 3 5 5 5 4 5 3 7 9 10
17 17 18 18 18 19 20 21 21 22 23 22 22 22 21 24 2 2 3 1 3 4 3 7 5 3 7 10 4 16 6 5 3 6 5 6 7 7 7 5 11 11 4 1 3 3 7
18 18 18 18 19 20 21 22 22 23 24 23 22 22 18 11 4 1 2 5 2 4 4 12 4 4 11 2 9 3 2 1 7 6 1 10 7 3 4 6 7 6 11 8 4 4 4
18 19 19 19 20 21 21 22 24 24 24 25 25 23 17 2 1 5 5 4 4 7 5 7 6 11 15 7 9 6 6 2 1 4 7 12 9 5 7 8 5 4 5 4 3 3 6
17 18 19 20 21 21 21 22 24 25 26 27 28 25 5 3 3 2 2 4 6 5 4 6 9 10 15 6 11 7 12 7 4 4 4 9 11 13 6 4 2 4 5 1 1 3 10
17 18 19 19 20 21 22 22 23 24 26 29 28 10 3 3 2 4 4 6 7 3 5 7 7 15 5 8 7 8 6 6 2 6 5 5 4 7 8 11 8 7 9 5 6 6 4
18 18 19 20 21 21 22 25 26 27 26 29 17 3 1 3 1 2 6 5 5 3 4 6 12 3 4 6 4 7 5 3 2 4 6 5 1 6 6 2 10 5 5 9 3 3 1
19 20 20 21 22 23 22 24 26 28 29 27 3 4 4 6 2 5 6 3 3 3 7 7 4 2 5 8 6 6 4 3 4 7 2 4 6 5 4 4 11 5 5 5 1 5 5
19 19 20 21 22 23 23 23 24 25 29 22 4 4 3 5 4 6 3 5 5 4 7 3 4 6 6 5 4 4 6 6 1 5 5 2 0 4 2 4 5 1 1 2 3 5 4
18 19 19 20 21 22 23 24 24 24 24 7 3 3 3 3 5 1 1 4 6 3 2 5 4 5 5 4 5 4 6 4 4 2 5 2 1 4 7 6 4 2 3 2 5 6 7
18 19 18 17 18 18 20 21 24 23 21 4 3 3 4 4 2 3 5 5 4 4 5 3 5 3 3 3 6 5 6 5 8 2 3 1 1 4 6 3 5 3 3 4 2 1 5
17 19 18 17 16 16 17 17 19 21 21 2 3 5 5 5 1 2 5 4 4 6 6 3 6 6 2 4 7 7 9 8 4 3 13 3 4 5 5 2 2 4 8 9 5 4 7
20 19 18 17 16 16 17 17 17 19 20 3 4 1 0 5 3 4 3 5 6 7 3 5 4 3 8 8 14 17 10 6 10 10 5 6 7 6 9 11 10 11 13 14 15 12 10
18 19 19 18 17 15 15 16 15 14 16 4 2 3 4 4 5 4 5 3 8 6 5 10 6 13 14 13 16 21 17 11 8 4 3 2 3 2 10 11 14 16 15 18 18 18 17
19 18 19 18 17 14 14 15 15 11 5 2 1 1 2 4 3 2 4 5 6 14 8 7 15 18 15 16 14 19 19 22 16 11 5 4 2 1 6 5 7 10 19 20 20 15 11
18 18 19 18 17 14 14 14 16 13 1 2 1 1 2 5 3 4 7 13 16 8 11 14 14 11 7 14 17 14 9 13 13 16 15 7 7 3 4 1 6 5 4 10 20 15 14
19 19 19 19 17 16 15 15 16 14 10 2 2 2 2 4 5 11 6 6 10 10 15 12 12 7 7 7 5 7 4 1 3 5 12 15 9 3 3 4 9 12 2 6 5 2 9
19 19 18 17 17 17 16 16 16 16 12 2 3 3 2 3 4 4 11 6 6 4 5 6 7 5 5 3 3 4 3 4 4 6 1 13 13 7 4 5 6 3 2 10 7 4 5
17 17 18 18 18 17 16 16 18 16 13 5 2 5 2 3 5 4 6 5 5 4 5 6 7 7 2 4 4 3 4 5 4 6 6 1 4 12 9 5 7 8 12 10 6 0 8
18 19 19 18 19 19 17 18 18 16 13 5 2 7 4 4 7 9 7 6 6 4 3 4 6 3 4 6 3 3 3 4 4 4 6 3 4 2 4 4 5 10 10 6 6 11 11
17 18 19 19 19 19 19 18 19 18 14 8 3 3 5 4 7 13 20 23 23 20 5 3 3 3 3 2 1 3 3 3 5 4 2 3 2 4 2 2 4 7 12 16 18 14 9
Wind_Direction
18 16 14 11 10 6 4 1 359 355 352 348 345 342 340 337 334 330 325 320 317 312 311 312 315 320 19 352 254 336 346 353 344 357 323 210 220 185 192 204 188 232 213 211 242 247 244
18 14 14 10 8 4 0 358 355 352 349 345 342 341 338 335 333 329 324 317 315 315 311 303 284 266 190 285 260 292 339 327 334 348 295 206 230 220 277 223 198 161 216 234 243 237 236
11 10 7 3 4 1 358 355 352 351 346 343 339 338 337 336 334 330 326 320 320 322 307 284 237 226 254 244 235 310 315 242 237 243 257 253 236 261 301 299 249 270 285 281 226 230 246
5 5 3 360 359 357 354 351 350 346 344 340 336 333 333 332 332 329 326 321 319 325 327 188 183 211 252 243 273 290 217 267 233 230 230 270 278 255 194 292 322 206 160 241 234 182 247
3 1 360 358 355 354 349 346 345 343 341 339 336 332 332 332 330 326 318 308 304 325 109 139 121 135 275 292 242 233 182 255 303 182 213 272 174 200 163 183 353 251 236 214 247 215 199
0 360 358 356 354 353 349 346 344 342 341 340 337 334 331 329 328 326 315 303 296 129 125 159 153 282 272 306 309 271 219 245 220 327 313 192 227 212 171 165 214 221 233 204 203 198 188
0 359 356 355 353 351 346 345 343 341 340 338 337 333 330 328 330 334 341 6 14 348 42 267 271 260 281 282 276 277 265 237 188 85 357 266 196 221 229 241 257 43 72 55 323 264 283
1 360 357 354 351 348 344 343 342 342 341 339 335 334 332 329 329 330 12 75 102 256 304 306 251 243 260 258 284 305 46 331 238 179 102 341 261 260 246 202 243 271 263 256 266 260 212
1 359 356 352 350 346 344 341 341 340 339 336 334 336 333 330 323 44 335 207 138 157 249 294 248 252 269 167 271 277 153 274 232 190 211 196 253 338 266 230 230 202 216 207 225 294 282
359 358 356 352 349 347 345 342 340 336 335 333 331 336 335 334 68 306 283 249 306 170 50 280 328 314 357 302 256 325 193 198 267 241 226 213 254 232 223 232 223 242 178 247 326 163 258
354 354 352 351 349 348 345 344 342 336 333 328 328 330 329 323 282 223 244 313 336 65 2 312 329 281 322 50 272 334 133 143 243 252 280 236 197 219 240 211 185 243 199 225 221 252 269
354 351 349 349 349 346 343 343 342 337 332 327 325 324 321 137 227 248 312 336 59 48 276 334 319 336 345 321 315 285 318 249 137 263 227 249 252 202 216 240 203 204 179 164 158 144 253
352 351 349 347 346 345 342 341 340 337 333 329 327 322 276 163 227 292 319 51 41 103 341 322 317 331 327 288 317 316 321 312 249 325 332 285 234 227 200 244 235 160 101 139 72 175 232
351 351 350 347 346 345 342 341 339 337 335 333 329 341 182 218 283 360 55 56 72 256 270 310 309 309 279 348 299 316 299 324 7 293 290 284 179 171 190 199 201 184 161 176 178 182 219
353 352 352 351 348 348 346 343 342 340 340 338 333 341 27 276 217 100 62 55 196 248 292 311 320 294 294 318 278 333 300 272 19 29 324 330 153 356 18 350 169 199 168 211 25 282 193
353 352 351 351 350 351 350 347 345 341 341 341 352 352 330 322 70 56 69 258 230 232 306 318 262 249 283 314 321 342 296 270 352 5 166 294 293 134 196 102 303 178 184 105 332 205 247
350 350 350 351 350 351 352 347 347 345 340 337 27 44 281 338 51 46 115 245 287 296 353 266 267 276 265 308 282 279 269 311 17 341 321 288 174 312 335 202 185 150 299 199 171 182 208
343 347 347 349 349 349 349 350 345 349 346 12 3 44 311 30 46 57 62 307 292 287 234 285 279 242 251 294 278 272 258 308 360 351 317 321 5 283 264 290 345 338 257 229 200 254 253
336 339 338 339 342 342 346 349 348 346 358 323 1 291 324 71 78 321 305 289 270 286 294 305 294 262 322 299 293 265 271 310 318 297 284 334 309 312 322 349 26 85 315 268 225 150 220
332 331 331 332 336 341 340 340 343 339 354 351 355 358 331 39 82 85 317 291 285 322 284 243 260 268 295 269 234 274 273 309 307 223 301 252 216 217 219 292 346 298 296 299 272 254 252
328 323 326 327 330 339 338 337 342 341 347 82 18 340 247 307 324 325 234 283 278 324 279 297 295 234 300 284 299 270 277 292 273 298 309 180 228 219 243 260 267 258 268 270 262 256 248
323 321 322 323 326 332 334 336 341 345 346 67 45 22 357 293 290 273 264 240 283 315 307 299 248 290 291 281 272 285 282 265 253 280 222 163 265 258 279 262 244 251 258 257 251 245 255
321 318 317 319 321 325 328 332 333 349 14 33 334 321 123 257 294 346 250 274 308 309 275 251 290 293 294 279 286 280 270 267 250 246 209 195 238 273 268 264 322 286 245 236 242 237 217
315 315 317 320 323 326 326 327 327 332 217 191 201 189 267 271 236 222 286 289 288 292 278 283 285 273 265 313 296 271 249 251 246 243 229 199 195 215 264 11 244 226 341 299 244 229 220
320 321 324 325 329 334 332 331 327 323 323 192 166 190 243 268 246 293 296 288 297 277 277 276 279 262 329 306 321 328 343 235 225 215 206 211 200 250 229 220 286 297 40 349 355 220 220
320 324 326 335 332 330 326 324 315 313 316 236 203 177 186 279 248 286 308 278 283 293 282 279 313 297 354 31 356 343 317 318 318 326 37 215 215 194 179 244 258 135 261 335 296 278 82
319 328 329 328 324 319 320 319 315 311 305 301 230 180 210 258 257 188 281 289 292 276 279 294 335 334 31 357 4 339 301 326 323 319 327 142 196 225 233 241 275 16 327 306 202 278 320
327 325 323 321 318 318 321 312 320 316 310 307 257 185 198 240 265 247 257 216 265 214 248 321 324 326 16 15 359 300 296 314 294 271 309 305 318 256 213 237 248 8 319 299 341 314 293
322 323 323 321 320 319 315 318 316 317 305 308 261 190 213 240 267 292 268 259 248 244 296 269 298 314 215 339 325 300 293 300 316 294 307 317 266 291 244 296 256 280 264 275 278 278 287